Location: ?????????
(55.9884°N, 38.9489°E)
Time: 23:43:34
(UTC+00:00)

Daily predictions for brighter satellites

Satellite Brightness Start Highest point End
(mag) Time Altitude Azimuth Time Altitude Azimuth Time Altitude Azimuth
Cosmos 1844 Rocket 3.3 15:17:33 10° NNW 15:22:54 40° NE 15:28:15 10° ESE
Cosmos 1850 Rocket 4.4 15:18:42 10° S 15:23:36 42° ESE 15:28:35 10° NE
Cosmos 2369 4.0 15:18:42 10° S 15:24:11 50° ESE 15:29:41 10° NE
Cosmos 1954 Rocket 4.1 15:20:54 10° SSW 15:26:06 85° WNW 15:31:20 10° NNE
Cosmos 1943 Rocket 4.2 15:24:41 10° NW 15:28:15 17° N 15:31:48 10° NE
Cosmos 2221 Rocket 3.6 15:25:32 10° N 15:30:06 83° ENE 15:34:40 10° SSE
Cosmos 1733 Rocket 3.2 15:25:48 10° S 15:30:08 54° E 15:34:31 10° NNE
Cosmos 2278 4.4 15:25:13 10° S 15:30:12 32° ESE 15:35:11 10° NE
COBE Rocket 3.9 15:26:10 10° SSE 15:30:54 59° ENE 15:35:32 10° N
Cosmos 1570 Rocket 4.1 15:25:56 10° NNW 15:31:11 60° NE 15:36:22 10° SE
SL-16 R/B 3.5 15:27:44 10° SE 15:31:30 19° E 15:35:16 10° ENE
PAYLOAD B 4.3 15:28:01 10° SSE 15:33:33 88° ENE 15:39:05 10° NNW
Cosmos 2278 Rocket 3.8 15:32:45 10° NNW 15:36:57 21° NNE 15:41:09 10° ENE
Cosmos 2263 Rocket 2.8 15:36:38 10° NW 15:42:16 61° WSW 15:47:52 10° SSE
Meteor 1-24 Rocket 4.0 15:38:15 10° N 15:43:18 41° ENE 15:48:20 10° SE
COSMO-SKYMED 1 2.5 15:41:48 10° NNE 15:46:10 74° ESE 15:50:30 10° S
Cosmos 2369 Rocket 4.3 15:42:26 10° NW 15:46:28 19° N 15:50:31 10° NE
Resurs 01 Rocket 3.4 15:46:12 10° E 15:48:39 15° NE 15:51:14 10° NNE
USA 267 4.2 15:43:27 10° SE 15:49:43 46° SW 15:56:00 10° WNW
ASTEX 1 3.4 15:44:49 10° N 15:49:50 81° E 15:54:50 10° S
Spot 1 4.1 15:46:26 10° NNE 15:50:35 50° E 15:54:34 10° S
Cosmos 1975 4.2 15:47:41 10° SW 15:51:34 45° WNW 15:55:28 10° N
Feng Yun 1-1 Rocket 4.2 15:49:08 10° SSE 15:54:30 64° ENE 15:59:51 10° NNW
SJ-6B 3.7 15:51:16 10° ESE 15:54:31 29° ENE 15:57:52 10° N
Cosmos 1741 Rocket 4.0 15:49:44 10° SSW 15:54:57 66° ESE 16:00:11 10° NNE
Cosmos 1814 Rocket 4.2 15:49:57 10° NNW 15:55:15 75° WSW 16:00:26 10° SSE
H-2A R/B 4.0 15:54:16 13° E 15:56:04 17° NE 15:58:31 10° NNE
CZ-4C R/B 4.3 15:52:45 10° N 15:57:00 56° WNW 16:01:02 10° SW
Cosmos 1437 Rocket 3.5 15:53:52 10° SSE 15:57:06 28° E 16:00:21 10° NNE
Cosmos 1844 3.9 15:51:42 10° NNW 15:57:09 52° NE 16:02:24 11° ESE
IRIDIUM 104 4.4 15:52:07 10° SSE 15:57:13 58° E 16:02:21 10° N
Cosmos 2227 4.5 15:53:45 10° NW 15:59:23 71° WSW 16:04:58 10° SSE
Cosmos 2208 Rocket 4.1 15:54:18 10° NNW 15:59:42 75° ENE 16:05:08 10° SE
HJ-1C 3.1 15:58:20 10° SSE 16:01:27 87° ENE 16:04:35 10° NNW
SL-4 R/B 4.0 15:58:23 10° W 16:02:03 26° SSW 16:05:52 10° SSE
Cosmos 2084 Rocket 3.3 15:59:21 10° NW 16:03:09 74° SW 16:06:55 11° SE
IRIDIUM 114 4.3 16:01:11 10° S 16:06:20 67° E 16:11:33 10° N
Cosmos 1697 Rocket 3.3 16:03:10 10° SW 16:08:44 61° NW 16:14:21 10° NNE
Cosmos 1805 3.6 16:04:53 10° SSW 16:08:45 70° WNW 16:12:39 10° N
Okean-O 3.2 16:05:21 11° SE 16:09:22 39° ENE 16:13:30 10° N
Meteor 1-12 Rocket 4.4 16:04:22 10° S 16:10:15 58° E 16:16:09 10° NNE
CSL-04 Debris 4.3 16:06:11 10° SE 16:11:26 54° ENE 16:16:42 10° N
Cosmos 1242 Rocket 3.4 16:08:02 10° SSW 16:11:31 51° WNW 16:14:58 10° N
Meteor 2-21 4.4 16:06:04 10° S 16:12:05 76° E 16:18:10 10° NNE
CZ-4 R/B 1.4 16:09:34 10° SSE 16:13:46 90° ENE 16:17:59 10° NNW
USA 81 4.3 16:10:10 10° N 16:15:18 49° ENE 16:20:25 10° SSE
IGS 5A 3.8 16:11:47 12° SE 16:15:27 43° ENE 16:19:24 10° N
IRIDIUM 103 4.3 16:10:16 10° S 16:15:29 78° E 16:20:44 10° N
Cosmos 2360 Rocket 3.4 16:12:17 10° SE 16:16:11 19° E 16:20:05 10° ENE
Cosmos 1809 Rocket 4.5 16:10:38 10° SSW 16:16:42 87° W 16:22:52 10° NNE
Cosmos 1908 Rocket 3.5 16:14:07 10° S 16:18:22 59° E 16:22:39 10° NNE
ATLAS 2AS CENTAUR R/B 3.6 16:13:24 10° WNW 16:20:37 47° N 16:26:46 13° ENE
Cosmos 1733 4.3 16:19:03 10° SSW 16:22:40 46° WNW 16:26:18 10° N
Meteor 2-10 4.3 16:18:51 10° SSW 16:24:27 77° WNW 16:29:53 10° NNE
OBJECT-B 0.1 16:23:32 28° SE 16:24:39 57° ENE 16:27:10 10° N
Cosmos 2026 Rocket 4.2 16:19:39 10° SSE 16:25:22 45° E 16:31:07 10° NNE
MINOTAUR IV R/B 4.5 16:20:52 10° SSW 16:25:22 73° ESE 16:29:54 10° NE
Cosmos 1782 Rocket 3.9 16:22:30 10° SSE 16:26:35 42° E 16:30:45 10° NNE
Cosmos 1025 Rocket 3.0 16:22:46 10° N 16:27:02 59° ENE 16:31:02 12° SSE
Cosmos 1766 3.3 16:24:34 10° SSW 16:28:29 84° W 16:32:28 10° N
Cosmos 968 Rocket 3.6 16:25:29 10° S 16:30:33 52° ESE 16:35:38 10° NE
YAOGAN 1 3.5 16:26:47 10° S 16:30:58 49° W 16:35:13 10° NNW
Meteor 2-5 Rocket 3.7 16:25:25 10° NNW 16:31:00 87° WSW 16:36:33 10° S
Cosmos 1553 Rocket 4.2 16:25:37 10° N 16:31:48 51° ENE 16:37:12 14° SE
NOSS 3-4 (A) 3.9 16:25:51 10° NW 16:32:16 61° NNE 16:37:12 21° E
NOSS 3-4 (C) 3.9 16:25:57 10° NW 16:32:22 61° NNE 16:37:18 21° E
Nadezhda 4 Rocket 4.0 16:26:53 10° S 16:33:14 87° E 16:39:34 10° NNE
IRIDIUM 106 4.5 16:28:34 10° S 16:33:48 79° W 16:39:03 10° N
Okean O Rocket 2.4 16:30:12 10° S 16:34:28 54° WSW 16:38:50 10° NNW
Meteor 1-15 Rocket 4.1 16:31:26 10° S 16:36:59 74° E 16:42:34 10° NNE
CSL-04 Rocket 3.6 16:32:08 10° SSE 16:37:29 73° ENE 16:42:56 10° NNW
Cosmos 2084 3.6 16:34:40 10° WSW 16:38:26 59° NNW 16:41:28 16° NE
Lacrosse 4 Rocket 2.8 16:35:44 10° S 16:37:34 20° SSE 16:37:34 20° SSE
Cosmos 2322 Rocket 2.5 16:39:21 10° S 16:44:39 41° ESE 16:49:58 10° NE
SPOT 1/Viking Rocket 4.0 16:46:38 28° ESE 16:48:47 42° ENE 16:53:37 10° N
Landsat 7 3.8 16:46:40 22° SE 16:49:40 65° ENE 16:54:21 10° N
Cosmos 1536 Rocket 4.2 16:45:40 10° N 16:49:42 35° ENE 16:50:25 33° E
Cosmos 1980 Rocket 2.8 16:45:15 10° SW 16:50:48 58° NW 16:56:22 10° NNE
USA 186 2.0 16:49:32 21° S 16:51:40 77° WSW 16:55:04 10° NNW
Cosmos 1726 3.6 16:48:22 10° SW 16:51:49 38° WNW 16:55:16 10° N
Cosmos 1975 Rocket 3.1 16:47:23 10° NNW 16:51:51 83° WSW 16:55:58 12° S
deb Chang Zheng 4 3.6 16:53:07 37° ESE 16:54:26 54° ENE 16:58:30 10° N
USA 215 3.2 16:49:33 18° ENE 16:54:39 79° SSE 17:01:12 10° WSW
Cosmos 1470 2.6 16:51:26 10° S 16:55:17 83° E 16:59:09 10° NNE
USA 281 4.1 16:53:55 22° E 16:57:03 34° NE 17:02:48 10° NNW
Ariane Rocket 3.7 16:56:02 30° E 16:57:17 35° ENE 17:01:53 10° N
Cosmos 2292 Rocket 3.5 16:52:53 10° SSW 16:57:37 78° W 17:01:17 10° N
CRYOSAT 2 4.3 16:56:01 10° S 17:00:56 90° ESE 17:05:53 10° N
Cosmos 1758 3.4 17:04:43 49° E 17:04:43 49° E 17:08:33 10° NNE
IRS-1C Rocket 4.1 17:02:42 15° SSE 17:07:04 81° WSW 17:12:23 10° NNW
Cosmos 1844 Rocket 3.1 17:01:30 10° NW 17:07:07 61° WSW 17:11:18 18° SSE
CARTOSAT-1 4.4 17:07:57 33° ENE 17:07:57 33° ENE 17:11:48 10° N
Cosmos 1943 Rocket 3.6 17:09:33 10° NNW 17:14:00 24° NNE 17:15:58 20° NE
Cosmos 2278 4.1 17:08:23 10° SW 17:14:02 65° NW 17:19:43 10° NNE
Cosmos 1092 Rocket 4.0 17:08:21 10° SSW 17:14:40 83° WNW 17:20:58 10° N
SL-16 R/B 2.1 17:09:05 10° SSW 17:14:46 79° ESE 17:20:28 10° NE
Landsat 5 3.5 17:12:19 10° NNE 17:16:52 85° ESE 17:21:20 10° SSW
Spot 2 Rocket 4.5 17:20:44 29° ENE 17:20:54 29° ENE 17:25:13 10° N
NOSS 2-1 (E) 4.3 17:18:10 10° NW 17:21:38 38° NNE 17:22:20 35° NE
Cosmos 2278 Rocket 2.7 17:17:04 10° NNW 17:22:30 44° NE 17:23:51 38° ENE
Resurs 01 Rocket 1.5 17:23:45 60° SE 17:24:26 73° ENE 17:28:53 10° NNW
Terra 3.3 17:24:56 23° NE 17:24:56 23° NE 17:28:20 10° N
MetOp-B 4.3 17:27:08 48° ESE 17:28:05 55° ENE 17:33:20 10° N
SJ-6B 4.1 17:26:35 17° SSW 17:29:01 37° W 17:32:37 10° NNW
H-2A R/B 2.2 17:30:44 75° SSW 17:31:00 81° WSW 17:34:52 10° NNW
Cosmos 2369 Rocket 4.1 17:28:26 10° NNW 17:32:40 21° NNE 17:35:16 16° NE
Cosmos 1437 Rocket 4.4 17:29:46 10° SW 17:33:11 33° WNW 17:36:39 10° N
Cosmos 1375 Rocket 4.5 17:27:21 10° NW 17:33:57 82° NE 17:36:00 47° SE
IRS-1A Rocket 4.2 17:32:33 44° SSE 17:34:29 79° ENE 17:40:21 10° NNW
Cosmos 1703 3.2 17:31:09 10° NNW 17:34:57 79° W 17:34:57 79° W
Resurs 1-3 4.4 17:34:04 26° SSW 17:36:16 50° W 17:40:35 10° NNW
Sich 1 Rocket 3.9 17:37:40 53° NE 17:37:40 53° NE 17:41:13 10° NNE
Cosmos 921 Rocket 2.9 17:34:11 10° NNW 17:38:43 79° ENE 17:38:49 78° E
MetOp-A 3.6 17:39:07 60° SW 17:39:29 64° WSW 17:43:31 10° NNW
S3M 3.9 17:36:51 10° NNW 17:43:09 87° E 17:45:28 42° SSE
Cosmos 2266 Rocket 4.1 17:42:26 50° ESE 17:43:17 54° E 17:49:28 10° NNE
Cosmos 1655 Rocket 4.1 17:43:52 50° ESE 17:44:13 51° E 17:50:17 10° NNE
Cosmos 1486 Rocket 3.9 17:40:20 10° SSW 17:45:39 81° ESE 17:51:02 10° NNE
DNEPR-1 R/B 4.0 17:40:53 10° SSW 17:45:47 66° SE 17:46:06 65° ESE
Okean-O 4.1 17:42:55 16° SSW 17:45:53 35° W 17:50:00 10° NNW
SeaSat 1 4.3 17:45:25 17° NE 17:46:41 19° NNE 17:50:05 10° NNW
Meteor 1-21 Rocket 4.1 17:42:05 10° NNW 17:47:40 86° WSW 17:49:08 52° S
CZ-4 R/B 4.4 17:46:59 10° WSW 17:49:19 14° W 17:51:39 10° NW
Cosmos 773 Rocket 4.3 17:44:17 10° NNW 17:49:33 64° WSW 17:50:53 47° S
Meteor 1-11 4.3 17:45:04 10° N 17:50:42 57° ENE 17:50:52 57° ENE
Cosmos 2333 Rocket 3.8 17:54:37 21° NE 17:54:37 21° NE 17:56:29 10° NE
Spot 2 4.3 17:52:52 61° SW 17:53:08 62° WSW 17:57:32 10° NNW
Cosmos 1908 4.4 17:56:16 36° N 17:56:16 36° N 17:58:43 10° N
Cosmos 1300 Rocket 4.2 17:53:19 20° SW 17:56:07 53° WNW 18:00:25 10° N
SPOT 5 3.5 17:57:02 44° NE 17:57:02 44° NE 18:00:43 10° N
Cosmos 2360 Rocket 2.0 17:53:44 10° SSW 17:59:23 82° ESE 18:05:04 10° NE
Cosmos 883 Rocket 4.4 17:55:20 10° N 18:01:44 85° ENE 18:03:01 60° SSE
Cosmos 158 Rocket 4.0 18:00:00 10° NNW 18:04:50 63° WSW 18:05:01 63° SW
Meteor 2-10 Rocket 4.3 18:06:25 45° NE 18:06:25 45° NE 18:10:44 10° NNE
NOSS 2-1 (C) 4.2 18:03:16 10° NW 18:06:10 48° NNW 18:06:10 48° NNW
In-Cosmos 22 Rocket 4.4 18:04:20 10° N 18:09:34 57° NE 18:09:34 57° NE
ATLAS 2AS CENTAUR R/B 2.9 18:05:23 10° NW 18:12:41 63° NNE 18:14:11 52° ENE
NOSS 2-1 (D) 4.5 18:13:29 10° NW 18:16:07 44° NNW 18:16:07 44° NNW
Lacrosse 4 Rocket 3.8 18:13:18 10° SW 18:13:56 14° SW 18:13:56 14° SW
NOSS 3-4 (A) 4.0 18:16:45 10° NW 18:23:23 62° SW 18:24:38 54° S
NOSS 3-4 (C) 4.0 18:16:52 10° NW 18:23:29 62° SW 18:24:44 54° S
Okean 2 Rocket 4.0 18:26:14 48° NNW 18:26:14 48° NNW 18:29:50 10° N
ERS-1 Rocket 3.5 18:27:15 54° N 18:27:15 54° N 18:31:13 10° NNW
Cosmos 2322 Rocket 2.9 18:23:01 10° SW 18:28:37 54° NW 18:34:15 10° NNE
SPOT 3 Rocket 3.8 18:34:25 65° NW 18:34:25 65° NW 18:39:00 10° NNW
Cosmos 1680 Rocket 4.2 18:30:11 10° NNW 18:34:22 48° NNE 18:34:22 48° NNE
Cosmos 1980 Rocket 4.3 18:31:31 10° WNW 18:35:59 23° NNW 18:40:26 10° NNE
Ariane Rocket 3.6 18:36:14 51° W 18:36:14 51° W 18:41:08 10° NNW
USA 215 3.2 18:36:54 69° ENE 18:37:47 82° N 18:44:21 10° W
USA 281 3.0 18:40:48 85° SE 18:41:00 89° NE 18:47:38 10° NNW
ADEOS Rocket 4.0 18:45:23 31° NE 18:45:23 31° NE 18:49:32 10° N
Aureole 1 Rocket 4.1 18:39:11 10° SW 18:46:08 68° WNW 18:51:30 10° NNE
Cosmos 2315 Rocket 4.4 18:46:10 10° NNW 18:52:22 55° W 18:53:05 52° WSW
Cosmos 1943 Rocket 2.9 18:53:19 10° NNW 18:57:29 48° N 18:57:29 48° N
SL-16 R/B 3.7 18:54:19 10° W 18:59:27 33° NW 19:04:36 10° NNE
Spot 2 Rocket 4.4 19:00:55 45° NW 19:00:55 45° NW 19:04:38 10° NNW
Resurs 01 Rocket 3.9 19:01:19 19° W 19:01:26 19° W 19:04:38 10° NW
Terra 3.2 19:03:49 37° NNW 19:03:49 37° NNW 19:06:43 10° NNW
Cosmos 2278 Rocket 3.0 19:01:16 10° NW 19:05:41 46° WNW 19:05:41 46° WNW
Cosmos 2369 Rocket 3.3 19:12:45 10° NNW 19:17:02 38° N 19:17:02 38° N
Cosmos 2219 Rocket 3.8 19:23:32 28° NNE 19:23:32 28° NNE 19:26:09 10° NNE
SeaSat 1 4.0 19:25:11 31° N 19:25:11 31° N 19:28:02 10° NNW
Cosmos 2333 Rocket 3.3 19:36:34 40° N 19:36:34 40° N 19:40:54 10° NNE
SJ 16-02 4.0 19:39:07 16° N 19:39:07 16° N 19:40:20 10° N
Cosmos 2360 Rocket 3.7 19:38:58 10° W 19:44:01 32° NW 19:49:04 10° NNE
Cosmos 2237 Rocket 4.5 19:50:09 15° NE 19:50:09 15° NE 19:51:03 10° NE
ATLAS 2AS CENTAUR R/B 3.6 19:56:42 10° NW 20:01:35 42° WNW 20:01:35 42° WNW
COSMOS 2428 4.4 20:09:25 28° NNE 20:09:25 28° NNE 20:12:18 10° NNE
Cosmos 2322 Rocket 4.4 20:09:28 10° WNW 20:13:56 23° NNW 20:18:25 10° NNE
COSMOS 2455 4.4 20:18:38 29° NNE 20:18:38 29° NNE 20:21:45 10° NE
USA 215 4.5 20:24:15 32° WNW 20:24:15 32° WNW 20:27:29 10° WNW
ADEOS Rocket 4.3 20:32:19 31° NW 20:32:19 31° NW 20:35:26 10° NNW
Cosmos 1943 Rocket 4.4 20:37:25 10° NW 20:38:59 18° WNW 20:38:59 18° WNW
Cosmos 2369 Rocket 4.2 20:56:53 10° NW 20:58:48 21° NW 20:58:48 21° NW
Cosmos 2219 Rocket 4.1 21:05:13 25° NNW 21:05:31 25° NNW 21:10:09 10° NNE
Cosmos 2333 Rocket 4.4 21:18:31 16° NW 21:21:05 21° NNW 21:25:25 10° NNE
Cosmos 2237 Rocket 4.0 21:31:58 28° N 21:31:58 28° N 21:35:08 10° NNE
Cosmos 2344 4.0 22:05:41 55° NW 22:06:31 57° NNW 22:15:11 10° ENE
Cosmos 1980 Rocket 4.0 22:03:12 10° NNW 22:07:58 27° NNE 22:09:37 24° ENE
SL-16 R/B 3.7 22:15:41 32° N 22:15:41 32° N 22:19:06 10° NNE
ATLAS 5 CENTAUR R/B 4.4 22:19:06 15° NE 22:19:06 15° NE 22:20:01 10° NE
SL-16 R/B 3.4 22:20:48 47° NNE 22:20:48 47° NNE 22:25:46 10° NNW
SL-16 R/B 4.5 22:27:18 10° NNW 22:31:34 21° NNE 22:35:49 10° ENE
Cosmos 1943 4.4 22:44:18 38° NNE 22:44:18 38° NNE 22:47:50 10° NNE
Resurs 1-4 Rocket 3.7 22:37:53 10° NNE 22:41:06 31° NE 22:41:06 31° NE
IDEFIX/ARIANE 42P 4.4 22:40:35 10° NE 22:44:05 25° ENE 22:44:05 25° ENE
CZ-2D R/B 3.4 22:52:45 10° NNE 22:56:23 38° NE 22:56:23 38° NE
Cosmos 1821 Rocket 4.3 23:09:26 63° NE 23:09:26 63° NE 23:14:54 10° NNE
Cosmos 1697 Rocket 4.4 23:05:00 10° NNW 23:07:05 23° NNW 23:07:05 23° NNW
Cosmos 2237 Rocket 4.3 23:13:47 16° NW 23:15:38 19° NNW 23:19:37 10° NNE
Cosmos 2123 Rocket 4.2 23:09:34 10° N 23:15:10 65° NE 23:15:10 65° NE
Cosmos 2360 Rocket 4.5 23:11:42 10° NNW 23:15:56 21° NNE 23:20:08 10° ENE
Lacrosse 4 Rocket 3.7 23:18:04 23° ENE 23:18:04 23° ENE 23:20:32 10° E
ADEOS II 3.0 23:16:25 10° NNE 23:20:38 43° ENE 23:20:38 43° ENE
MSX 4.2 23:38:42 10° NNE 23:44:25 57° ESE 23:44:42 56° ESE
Cosmos 2322 Rocket 4.0 23:41:05 10° NNW 23:46:04 29° NNE 23:50:59 10° E
Meteor 2-11 Rocket 4.4 23:47:17 78° ESE 23:47:20 78° E 23:53:30 10° NNE
Meteor 1-26 Rocket 4.3 23:48:52 69° NNE 23:48:52 69° NNE 23:53:40 10° NNE
COSMOS 2455 4.2 23:45:14 10° NW 23:50:46 36° NNE 23:56:18 10° E
Cosmos 1980 Rocket 2.8 23:47:12 10° NNW 23:58:53 - SE 23:51:09 47° NNW
ATLAS CENTAUR R/B 3.2 23:56:10 30° ESE 23:56:10 30° ESE 00:00:00 10° ENE
